Home > Weather > Niterói > Past weeks

Flag for Brazil Past Weather in Niterói, Rio de Janeiro, Brazil — Yesterday and Last 2 Weeks

Now
75 °F

Fog.


Feels Like: 76 °F
Forecast: 66 / 77 °F
Wind: 7 mph from Southeast

Location: Rio De Janeiro Airport

Current Time: Jul 1, 2016 at 2:05:51 PM

Latest Report: Jul 1, 2016 at 1:00 PM


Visibility: 2 mi

Pressure: 30.24 "Hg

Humidity: 78%

Dew Point: 68 °F

Location of NiteróiLocation

Past Weather in Niterói — Graph

°F

Niterói Temperature Yesterday

Maximum temperature yesterday: 73 °F (at 11:00 AM)
Minimum temperature yesterday: 68 °F (at 1:00 AM)
Average temperature yesterday: 70 °F

High & Low Weather Summary for the Past Weeks

 TemperatureHumidityPressure
High81 °F (Jun 17, 2:00 PM)100% (Jun 30, 3:00 AM)30.36 "Hg (Jun 30, 3:00 AM)
Low63 °F (Jun 17, 6:00 AM)45% (Jun 17, 2:00 PM)29.89 "Hg (Jun 28, 2:00 AM)
Average70 °F82%30.20 "Hg
* Reported Jun 16 1:00 PM — Jul 1 1:00 PM, Niterói, Weather by CustomWeather, © 2016

Note: Actual official high and low records may vary slightly from our data, if they occured in-between our weather recording intervals... More about our weather records

Advertising

Niterói Weather History for the Previous 24 Hours

Scroll right to see more
 ConditionsComfort  
Time TempWeatherWind HumidityBarometerVisibility
1:00 PM
Fri, Jul 1
75 °FFog.7 mph78%30.24 "Hg2 mi
12:00 PM73 °FFog.5 mph83%30.24 "Hg2 mi
11:00 AM73 °FFog.6 mph83%30.27 "Hg2 mi
10:00 AM72 °FFog.5 mph88%30.27 "Hg2 mi
9:00 AM72 °FFog.3 mph88%30.27 "Hg2 mi
8:00 AM70 °FFog.5 mph94%30.27 "Hg2 mi
7:00 AM68 °FFog.3 mph100%30.24 "Hg2 mi
6:00 AM68 °FFog.2 mph94%30.21 "Hg3 mi
5:00 AM68 °FFog.5 mph94%30.21 "Hg3 mi
4:00 AM70 °FFog.5 mph88%30.21 "Hg3 mi
3:00 AM68 °FFog.3 mph94%30.21 "Hg3 mi
2:00 AM68 °FFog.6 mph94%30.24 "Hg3 mi
1:00 AM68 °FPassing clouds.7 mph94%30.24 "Hg4 mi
12:00 AM70 °FPassing clouds.6 mph88%30.24 "Hg4 mi
11:00 PM
Thu, Jun 30
70 °FFog.3 mph88%30.27 "Hg3 mi
10:00 PM68 °FFog.6 mph94%30.27 "Hg3 mi
9:00 PM68 °FFog.7 mph88%30.24 "Hg3 mi
8:00 PM68 °FFog.10 mph88%30.24 "Hg3 mi
7:00 PM68 °FFog.10 mph94%30.24 "Hg3 mi
6:00 PM68 °FFog.12 mph94%30.21 "Hg3 mi
5:00 PM70 °FFog.9 mph88%30.21 "Hg3 mi
4:00 PM70 °FFog.12 mph88%30.18 "Hg3 mi
3:00 PM70 °FFog.12 mph88%30.18 "Hg3 mi
2:00 PM73 °FFog.15 mph78%30.21 "Hg3 mi
Weather by CustomWeather, © 2016

See weather overviewHow to use our weather pages